This demonstration page uses our WeatherBlox Daily Observations layout. Learn more.

Left ArrowRight Arrow

41.12389, -100.76542

Hourly Observations for November 11, 2016

Temp ( °F °C ) Dew Point ( °F °C ) Humidity (%) Winds ( mph kmh ) Pressure ( in mb ) Visibility ( mi km ) Precip ( " mm )
12:53 am 00:53 Clear 43 6.1 31 -0.6 63 63 VRB 3 6 30.39 1029 10 16 0.00 0.00
1:53 am 01:53 Clear 41 5 30 -1.1 65 65 ENE 3 6 30.40 1030 10 16 0.00 0.00
2:53 am 02:53 Clear 38 3.3 30 -1.1 73 73 NE 5 7 30.42 1030 10 16 0.00 0.00
3:53 am 03:53 Clear 34 1.1 29 -1.7 82 82 N 5 7 30.44 1031 10 16 0.00 0.00
4:53 am 04:53 Clear 31 -0.6 27 -2.8 85 85 N 3 6 30.46 1032 10 16 0.00 0.00
5:53 am 05:53 Clear 31 -0.6 28 -2.2 89 89 NNW 5 7 30.48 1032 10 16 0.00 0.00
6:53 am 06:53 Clear 31 -0.6 28 -2.2 89 89 W 3 6 30.51 1033 10 16 0.00 0.00
7:53 am 07:53 Sunny 33 0.6 29 -1.7 85 85 W 5 7 30.53 1034 10 16 0.00 0.00
8:53 am 08:53 Sunny 38 3.3 32 0 79 79 W 5 7 30.55 1035 10 16 0.00 0.00
9:53 am 09:53 Sunny 43 6.1 34 1.1 71 71 Calm 30.55 1035 10 16 0.00 0.00
10:53 am 10:53 Sunny 49 9.4 34 1.1 56 56 VRB 5 7 30.54 1034 10 16 0.00 0.00
11:53 am 11:53 Sunny 50 10 31 -0.6 48 48 Calm 30.52 1034 10 16 0.00 0.00
12:53 pm 12:53 Sunny 53 11.7 30 -1.1 41 41 Calm 30.49 1033 10 16 0.00 0.00
1:53 pm 13:53 Sunny 56 13.3 30 -1.1 37 37 Calm 30.46 1032 10 16 0.00 0.00
2:53 pm 14:53 Sunny 55 12.8 27 -2.8 34 34 Calm 30.45 1031 10 16 0.00 0.00
3:53 pm 15:53 Sunny 56 13.3 24 -4.4 29 29 Calm 30.45 1031 10 16 0.00 0.00
4:53 pm 16:53 Sunny 50 10 25 -3.9 38 38 SSE 5 7 30.45 1031 10 16 0.00 0.00
5:53 pm 17:53 Clear 40 4.4 23 -5 51 51 Calm 30.48 1032 10 16 0.00 0.00
6:53 pm 18:53 Clear 35 1.7 22 -5.6 59 59 ENE 5 7 30.49 1033 10 16 0.00 0.00
7:53 pm 19:53 Clear 32 0 24 -4.4 73 73 Calm 30.50 1033 10 16 0.00 0.00
8:53 pm 20:53 Clear 29 -1.7 22 -5.6 75 75 Calm 30.50 1033 10 16 0.00 0.00
9:53 pm 21:53 Clear 25 -3.9 19 -7.2 78 78 Calm 30.49 1033 10 16 0.00 0.00
10:53 pm 22:53 Clear 25 -3.9 21 -6.1 85 85 Calm 30.48 1032 10 16 0.00 0.00
11:53 pm 23:53 Clear 23 -5 17 -8.3 78 78 Calm 30.48 1032 10 16 0.00 0.00

Powered by AerisWeather